Location: Banff
(51.1667°N, 115.5667°W)
Time: 08:39:04
(UTC+00:00)

Envisat - Pass Details

Date: 03 December 2022
Orbit: 763 x 765 km, 98.2° (Epoch: 28 January)

Event Time Altitude Azimuth Distance (km) Brightness Sun altitude
Rises 14:18:36 0° 1° (N) 3,247 6.0 -10.2°
Reaches altitude 10° 14:22:41 10° 329° (NNW) 2,315 5.0 -9.6°
Maximum altitude 14:24:10 11° 312° (NW) 2,224 4.8 -9.4°
Enters shadow 14:24:39 11° 306° (NW) 2,232 4.8 -9.3°
